Tracking 31027 objects as of 19-Jul-2025
HD Live streaming from Space Station
objects crossing your sky now

STARLINK-2098

Track STARLINK-2098 now!
10-day predictions
STARLINK-2098 is classified as:


NORAD ID: 47378
Int'l Code: 2021-005AF
Perigee: 553.6 km
Apogee: 555.1 km
Inclination: 53.1 °
Period: 95.6 minutes
Semi major axis: 6925 km
RCS: Unknown
Launch date: January 20, 2021
Source: United States (US)
Launch site: AIR FORCE EASTERN TEST RANGE (AFETR)
Your satellite tracking list
FENGYUN 1C DEB
Track 1 satellite(s)




NASA's NSSDC Master Catalog

Two Line Element Set (TLE):
1 47378U 21005AF  25199.42894877  .00001530  00000-0  12156-3 0  9999
2 47378  53.0556 353.2548 0001112  91.7852 268.3264 15.06403216248296
Source of the keplerian elements: AFSPC